Location: Newark
(40.3417°N, 75.9264°W)
Time: 09:07:12
(UTC+00:00)

JY1SAT - Visible Passes

Search period start: 06 June 2020 00:00
Search period end: 16 June 2020 00:00
Orbit: 571 x 590 km, 97.7° (Epoch: 05 June)

Date Brightness Start Highest point End Pass type
(mag) Time Alt. Az. Time Alt. Az. Time Alt. Az.
06 Jun ? 02:03:13 18° ESE 02:04:53 23° ENE 02:08:12 10° NNE visible
06 Jun ? 03:39:34 27° WSW 03:40:04 28° W 03:43:42 10° NW visible
07 Jun ? 02:08:25 20° ESE 02:10:01 26° ENE 02:13:31 10° NNE visible
07 Jun ? 03:44:46 24° WSW 03:45:17 25° W 03:48:45 10° NW visible
08 Jun ? 02:13:37 23° ESE 02:15:09 29° ENE 02:18:48 10° N visible
08 Jun ? 03:49:58 21° WSW 03:50:29 22° W 03:53:45 10° NW visible
09 Jun ? 02:18:50 26° ESE 02:20:18 33° ENE 02:24:04 10° N visible
09 Jun ? 03:55:10 19° WSW 03:55:42 19° W 03:58:43 10° NW visible
10 Jun ? 02:24:02 29° ESE 02:25:27 38° ENE 02:29:19 10° N visible
10 Jun ? 04:00:23 16° WSW 04:00:55 17° W 04:03:38 10° NW visible
11 Jun ? 02:29:14 32° ESE 02:30:35 43° ENE 02:34:34 10° N visible
11 Jun ? 04:05:35 14° W 04:06:08 15° W 04:08:30 10° WNW visible
12 Jun ? 02:34:26 36° SE 02:35:44 50° ENE 02:39:47 10° N visible
12 Jun ? 04:10:47 13° W 04:11:21 13° W 04:13:15 10° WNW visible
13 Jun ? 02:39:38 39° SE 02:40:53 58° ENE 02:44:59 10° N visible
13 Jun ? 04:15:59 11° W 04:16:34 11° W 04:17:47 10° WNW visible
14 Jun ? 02:44:50 43° SE 02:46:02 67° ENE 02:50:11 10° N visible
15 Jun ? 02:50:03 47° SSE 02:51:11 77° ENE 02:55:22 10° N visible
